Regional Weather Roundup
Issued by NWS

Home | Current Version | Previous Version | Text Only | Print | Product List | Glossary On
Versions: 1 2 3 4 5 6 7 8 9 10 11 12 13 14 15 16 17 18 19 20 21 22 23 24 25 26 27 28 29 30 31 32 33 34 35 36 37 38 39 40 41 42 43 44 45 46 47 48 49 50
000
ASUS43 KMPX 261310
RWRMN
WEATHER ROUNDUP FOR MINNESOTA
NATIONAL WEATHER SERVICE TWIN CITIES/CHANHASSEN MN
800 AM CDT WED JUL 26 2017


NOTE: "FAIR" INDICATES FEW OR NO CLOUDS BELOW 12,000 FEET WITH NO
SIGNIFICANT WEATHER AND/OR OBSTRUCTIONS TO VISIBILITY. N/A MEANS
CURRENT SKY AND/OR WEATHER CONDITIONS ARE NOT AVAILABLE.

MNZ060>063-068>070-261400-
   Twin Cities Metro

CITY           SKY/WX    TMP DP  RH WIND       PRES   REMARKS
TWIN CITIES    LGT RAIN  72  68  87 S7        30.01R
ST PAUL        CLOUDY    72  72 100 CALM      30.00R
CRYSTAL        CLOUDY    72  68  87 W5        30.00R
BLAINE         DRIZZLE   73  72  94 VRB3      30.01R
LAKEVILLE      CLOUDY    68  68 100 CALM      29.99F
SOUTH ST PAUL  CLOUDY    70  70  99 SW6       30.00R
LAKE ELMO      CLOUDY    70  70 100 CALM      30.01R
$$
MNZ001>005-007-008-013>017-022>024-027-028-261400-
   Northwest Minnesota

CITY           SKY/WX    TMP DP  RH WIND       PRES   REMARKS
BEMIDJI        SUNNY     64  58  80 NW7       30.00S
HALLOCK        SUNNY     64  61  88 NW7       30.01R
ROSEAU         SUNNY     63  57  82 NW8       29.98F
WARROAD        SUNNY     63  59  88 NW7       29.98S
THIEF RVR FALL SUNNY     64  59  83 NW12      30.01S
CROOKSTON      SUNNY     64  61  88 N10       30.01S
FOSSTON        SUNNY     64  57  77 NW8       30.01S
DETROIT LAKES  SUNNY     66  57  72 NW6       30.03S
MOORHEAD       SUNNY     64  61  88 CALM      30.03R
PARK RAPIDS    SUNNY     67  60  78 CALM      30.02R
MAHNOMEN       FAIR      63  59  87 W5        30.01F
$$
MNZ006-009>011-018-025>026-261400-
   North Central Minnesota

CITY           SKY/WX    TMP DP  RH WIND       PRES   REMARKS
BAUDETTE       SUNNY     64  59  83 W12       29.96R
FLAG ISLAND    SUNNY     64  61  88 NW13      29.95S
INTL FALLS     SUNNY     66  61  84 NW9       29.95R
WASKISH        SUNNY     66  59  77 NW8       29.98R
BIG FORK       SUNNY     64  61  88 SW3       29.99R
LONGVILLE      MOSUNNY   66  61  82 CALM      30.01R
GRAND RAPIDS   SUNNY     67  61  81 NW5       30.02R
CRANE LAKE     SUNNY     63  59  88 CALM      29.97R
ORR            SUNNY     63  57  82 W5        29.95R
COOK             N/A     63  57  82 W5        29.98S
WALKER         FAIR      64  58  80 W6        30.01R
$$
MNZ012-019>021-037-261400-
   Northeast Minnesota

CITY           SKY/WX    TMP DP  RH WIND       PRES   REMARKS
DULUTH         CLOUDY    67  64  90 SW6       30.00R
ELY            CLOUDY    64  57  77 W6        29.97R
HIBBING        SUNNY     64  61  90 CALM      30.00R
EVELETH        SUNNY     64  57  78 W5        30.00R
DULUTH HARBOR  CLOUDY    72  66  83 W5        29.98F
TWO HARBORS    MOSUNNY   72  64  78 W5        29.97S
SILVER BAY     MOSUNNY   70  63  78 SW3       29.96R
GRAND MARAIS     N/A     64  60  87 W7        29.93R
G MARAIS ARPRT MOSUNNY   64  55  72 W3        29.97R
$$
MNZ029>031-032-039>041-046>048-054>057-064-261400-
   West Central Minnesota

CITY           SKY/WX    TMP DP  RH WIND       PRES   REMARKS
FERGUS FALLS   MOSUNNY   66  61  82 CALM      30.02R
WHEATON        CLOUDY    68  63  83 CALM      30.04S
MORRIS         CLOUDY    70  64  83 NE5       30.02R
ALEXANDRIA     CLOUDY    69  63  81 CALM      30.05R
ELBOW LAKE     FAIR      66  63  89 CALM      30.04R
WADENA         CLOUDY    64  61  88 CALM      30.02R
GLENWOOD       CLOUDY    68  63  83 CALM      30.04R
APPLETON       CLOUDY    72  64  78 NE5       30.02R
BENSON         CLOUDY    72  64  78 CALM      30.04R
ORTONVILLE     CLOUDY    70  66  88 MISG      30.02R
MADISON        CLOUDY    73  73 100 NE7       30.03R
WILLMAR        FAIR      68  68 100 CALM      30.04R
$$
MNZ033>034-036-042>043-049>051-058-059-261400-
   Central Minnesota

CITY           SKY/WX    TMP DP  RH WIND       PRES   REMARKS
ST CLOUD       CLOUDY    69  69 100 NW3       30.02R
SAUK CENTRE    PTSUNNY   68  63  84 CALM      30.04R
PAYNESVILLE    CLOUDY    70  65  84 N5        30.03R
AITKIN         PTSUNNY   64  63  94 CALM      30.00R
PINE RIVER     CLOUDY    64  59  82 N3        30.04S
BRAINERD       CLOUDY    67  60  78 N6        30.00S
STAPLES        CLOUDY    64  61  88 CALM      30.02R
LONG PRAIRIE   FAIR      64  61  88 CALM      30.04R
LITTLE FALLS   CLOUDY    66  63  88 CALM      30.02R
LITCHFIELD     PTSUNNY   72  72 100 CALM      30.03R
BUFFALO        CLOUDY    71  67  88 N3        30.02R
MAPLE LAKE     CLOUDY    71  70  97 CALM      30.03R
HUTCHINSON     CLOUDY    71  70  98 CALM      30.04R FOG
$$
MNZ037-044-045-052-053-261400-
   East Central Minnesota

CITY           SKY/WX    TMP DP  RH WIND       PRES   REMARKS
PRINCETON      CLOUDY    70  68  94 CALM      30.01R
MORA           CLOUDY    64  64 100 CALM      30.01R
CAMBRIDGE      CLOUDY    72  64  78 CALM      29.98R
RUSH CITY      LGT RAIN  67  65  91 CALM      29.99R
MOOSE LAKE     CLOUDY    64  63  94 CALM      29.98F FOG
HINCKLEY       FAIR      68  68 100 N3        29.99S
CLOQUET        CLOUDY    68  63  83 W3        30.00S
MCGREGOR       CLOUDY    66  61  82 CALM      30.01S
$$
MNZ071>073-080-081-089-090-097-098-261400-
   Southwest Minnesota

CITY           SKY/WX    TMP DP  RH WIND       PRES   REMARKS
MONTEVIDEO     CLOUDY    72  70  94 NE6       30.03R
GRANITE FALLS  MOSUNNY   73  71  93 N6        30.03S
CANBY          CLOUDY    73  71  95 CALM      30.05R FOG
MARSHALL       PTSUNNY   71  69  93 N3        30.03R
REDWOOD FALLS  CLOUDY    71  68  90 CALM      30.01R
OLIVIA         LGT RAIN  70  68  94 CALM      30.02R
PIPESTONE      CLOUDY    72  66  83 CALM      30.04R
WINDOM         CLOUDY    70  66  88 CALM      30.03R
WORTHINGTON    CLOUDY    70  68  93 CALM      30.04S
JACKSON        CLOUDY    70  68  94 CALM      30.03S
TRACY          CLOUDY    71  70  97 CALM      30.03R
SLAYTON        RAIN      68  66  94 CALM      30.04R
$$
MNZ065>067-074>077-082>085-091>093-261400-
   South Central Minnesota

CITY           SKY/WX    TMP DP  RH WIND       PRES   REMARKS
MANKATO        CLOUDY    71  70  96 S5        30.00S
NEW ULM        CLOUDY    72  70  94 CALM      30.02R
ST JAMES       CLOUDY    72  70  94 CALM      30.03S
FAIRMONT       LGT RAIN  70  68  93 NE6       30.01F
GLENCOE        DRIZZLE   71  71 100 CALM      30.01S
FARIBAULT      LGT RAIN  70  68  94 SE7       29.99F
OWATONNA       CLOUDY    70  66  88 CALM      30.00R
WASECA         CLOUDY    70  68  94 CALM      30.01S
ALBERT LEA     HVY RAIN  70  70 100 CALM      30.03R
$$
MNZ078>079-086>088-094>096-261400-
   Southeast Minnesota

CITY           SKY/WX    TMP DP  RH WIND       PRES   REMARKS
ROCHESTER      LGT RAIN  69  68  96 SE8       30.04F
RED WING       CLOUDY    70  66  88 CALM      29.99S
STANTON        LGT RAIN  70  67  92 S6        29.97F
DODGE CENTER   LGT RAIN  68  66  94 CALM      30.01F
WINONA         CLOUDY    72  68  88 CALM      30.02S
AUSTIN         RAIN      72  66  83 E3        30.03S
PRESTON        CLOUDY    70  66  85 NE6       30.06S
$$
ABBREVIATIONS USED IN REMARKS
   TC - TEMPERATURES IN CELSIUS
  WCI - WIND CHILL INDEX
   HX - HEAT INDEX
  VSB - VISIBILITY
$$



USA.gov is the U.S. government's official web portal to all federal, state and local government web resources and services.